Home   Weather   Mechelen   Past weeks
Flag for Belgium

Past Weather in Mechelen, Antwerp, Belgium — Yesterday and Last 2 Weeks

Now
64 °F

Broken clouds.


Feels Like: 64 °F
Forecast: 76 / 57 °F
Wind: 10 mph from Southwest

Location: Brussels National Airport

Current Time: Jun 16, 2019 at 1:29:33 pm

Latest Report: Jun 16, 2019 at 12:50 pm


Visibility: N/A

Pressure: 30.15 "Hg

Humidity: 68%

Dew Point: 54 °F

Location of MechelenLocation

Past Weather in Mechelen — Graph

°F

Mechelen Temperature Yesterday

Maximum temperature yesterday: 70 °F (at 6:20 pm)
Minimum temperature yesterday: 54 °F (at 5:50 am)
Average temperature yesterday: 61 °F

High & Low Weather Summary for the Past Weeks

 TemperatureHumidityPressure
High84 °F (Jun 2, 1:50 pm)100% (Jun 6, 10:50 pm)30.24 "Hg (Jun 6, 10:50 pm)
Low48 °F (Jun 9, 3:20 am)37% (Jun 2, 1:50 pm)29.56 "Hg (Jun 4, 6:50 pm)
Average61 °F76%29.91 "Hg
* Reported Jun 1 12:20 pm — Jun 16 12:20 pm, Mechelen. Weather by CustomWeather, © 2019

Note: Actual official high and low records may vary slightly from our data, if they occured in-between our weather recording intervals... More about our weather records

Advertising

Mechelen Weather History for the Previous 24 Hours

Scroll right to see more
 ConditionsComfort  
Time TempWeatherWind HumidityBarometerVisibility
12:20 pm
Sun, Jun 16
64 °FScattered clouds.9 mph68%30.15 "HgN/A
11:50 am66 °FScattered clouds.8 mph68%30.12 "HgN/A
11:20 am64 °FPartly sunny.10 mph73%30.12 "HgN/A
10:50 am61 °FBroken clouds.10 mph77%30.12 "HgN/A
10:20 am63 °FPartly sunny.12 mph73%30.12 "HgN/A
9:50 am63 °FPartly sunny.10 mph77%30.12 "HgN/A
9:20 am61 °FPartly sunny.12 mph77%30.12 "HgN/A
8:50 am61 °FScattered clouds.12 mph77%30.09 "HgN/A
8:20 am61 °FPassing clouds.12 mph77%30.09 "HgN/A
7:50 am59 °FPassing clouds.10 mph77%30.09 "HgN/A
7:20 am57 °FSunny.9 mph82%30.09 "Hg10 mi
6:50 am57 °FSunny.8 mph82%30.09 "Hg10 mi
6:20 am55 °FSunny.7 mph82%30.07 "Hg10 mi
5:50 am54 °FSunny.7 mph88%30.07 "Hg10 mi
5:20 am54 °FClear.8 mph88%30.07 "Hg10 mi
4:50 am55 °FClear.7 mph82%30.07 "Hg10 mi
4:20 am54 °FClear.7 mph88%30.07 "Hg10 mi
3:50 am54 °FPassing clouds.8 mph88%30.07 "HgN/A
3:20 am54 °FClear.8 mph88%30.07 "Hg10 mi
2:50 am54 °FClear.7 mph88%30.07 "Hg10 mi
2:20 am55 °FClear.8 mph82%30.07 "Hg10 mi
1:50 am55 °FClear.7 mph88%30.07 "Hg10 mi
1:20 am55 °FClear.7 mph88%30.07 "Hg10 mi
12:50 am55 °FClear.7 mph88%30.04 "Hg10 mi
12:20 am55 °FClear.6 mph94%30.04 "Hg10 mi
11:50 pm
Sat, Jun 15
57 °FClear.6 mph88%30.04 "Hg10 mi
11:20 pm57 °FClear.5 mph88%30.01 "Hg10 mi
10:50 pm57 °FClear.2 mph94%30.01 "Hg10 mi
10:20 pm57 °FClear.3 mph94%30.01 "Hg10 mi
9:50 pm59 °FSunny.No wind88%30.01 "Hg10 mi
9:20 pm61 °FSunny.1 mph88%30.01 "Hg10 mi
8:50 pm61 °FSunny.1 mph83%30.01 "Hg10 mi
8:20 pm63 °FSunny.2 mph83%30.01 "Hg10 mi
7:50 pm64 °FPassing clouds.6 mph73%30.01 "HgN/A
7:20 pm64 °FPassing clouds.8 mph73%30.01 "HgN/A
6:50 pm66 °FPassing clouds.12 mph64%30.01 "HgN/A
6:20 pm70 °FPassing clouds.8 mph57%29.98 "HgN/A
5:50 pm68 °FScattered clouds.7 mph56%29.98 "HgN/A
5:20 pm68 °FPassing clouds.2 mph69%29.98 "HgN/A
4:50 pm66 °FPassing clouds.3 mph73%29.98 "HgN/A
4:20 pm66 °FSprinkles. Scattered clouds.7 mph73%29.98 "HgN/A
3:50 pm68 °FScattered clouds.1 mph64%29.98 "HgN/A
3:20 pm68 °FPassing clouds.6 mph64%29.98 "HgN/A
2:50 pm68 °FPassing clouds.6 mph69%29.98 "HgN/A
2:20 pm66 °FScattered clouds.6 mph73%29.98 "Hg4 mi
1:50 pm64 °FBroken clouds.10 mph78%30.01 "Hg4 mi
1:20 pm63 °FBroken clouds.10 mph88%29.98 "Hg4 mi
Weather by CustomWeather, © 2019

See weather overview